GEFSSGP_con_prob3kmehi_246.txt.gz
EHI
10 4 0 0 0 0 0 0 0 0 0 0 0 0 0 0 0 0 0 0 0 0 1 2 4 5 3 5 9 11 10 11 10 7 5 3 3 2 2 1 0 0 0 0 0 0 0 0 0
6 4 1 0 0 0 0 0 0 0 0 0 0 0 0 0 0 0 0 0 0 0 0 1 3 4 3 5 9 10 10 9 9 7 4 2 2 1 1 0 0 0 0 0 0 0 0 0 0
5 5 3 1 0 0 0 1 1 1 0 0 0 0 0 0 0 0 0 0 0 0 0 1 2 2 2 5 9 9 8 7 6 5 2 1 1 0 0 0 0 0 0 0 0 0 0 0 0
6 6 4 2 0 0 1 2 2 2 1 1 0 0 0 0 0 0 0 0 0 0 0 1 2 1 1 5 8 6 4 3 3 2 1 0 1 1 1 0 0 0 0 0 0 0 0 1 1
6 4 2 1 0 0 1 2 3 3 3 2 1 0 0 0 0 0 0 0 1 1 1 1 2 1 1 3 4 3 1 1 0 0 0 1 2 2 2 1 0 0 0 0 0 0 1 2 2
5 3 0 0 0 0 0 2 4 5 4 3 1 0 1 1 1 0 0 0 1 2 2 2 2 1 1 1 2 2 2 1 0 0 1 2 3 3 2 1 0 0 0 0 0 1 2 3 3
5 2 0 0 0 0 0 1 3 4 3 2 2 1 1 2 2 0 0 1 2 3 3 2 1 1 0 1 3 3 2 1 0 1 2 2 3 3 3 1 0 0 0 0 1 2 3 3 3
5 2 0 0 0 0 0 1 2 2 2 2 2 2 3 4 3 1 1 2 3 2 2 2 1 0 0 1 2 2 1 0 0 1 2 1 1 2 2 1 0 1 1 1 2 3 3 4 4
6 3 1 0 0 0 1 2 2 2 3 3 3 5 7 7 4 2 2 2 3 2 1 1 1 0 0 0 0 1 1 0 0 1 2 1 0 1 1 2 2 3 4 5 5 5 5 5 4
5 2 0 0 0 1 3 4 4 4 4 6 9 11 12 9 6 4 2 2 2 1 0 0 0 0 0 0 0 0 0 0 0 1 1 0 0 0 0 2 4 6 7 7 7 7 6 4 2
3 1 0 0 1 4 7 7 6 5 7 11 16 17 15 11 8 5 3 2 1 0 0 0 0 0 0 0 0 0 0 0 0 0 0 0 0 0 0 1 2 4 5 6 5 4 3 2 1
2 1 0 0 2 5 8 8 8 9 10 14 18 18 14 10 8 6 3 1 1 0 0 0 0 0 0 0 0 0 0 0 0 0 0 0 0 0 0 0 0 1 1 2 1 1 0 0 1
1 1 0 1 3 5 8 11 13 13 14 16 16 14 12 10 9 8 4 2 2 1 0 0 0 0 0 0 0 0 0 0 0 0 0 0 0 0 0 0 0 0 0 0 0 0 0 0 1
0 0 1 2 3 5 9 13 15 16 17 17 13 9 9 10 11 10 7 4 4 3 2 1 1 1 1 0 0 1 1 1 1 0 0 1 1 1 0 0 0 0 0 0 0 0 0 0 0
0 0 1 2 2 3 6 10 13 17 20 18 12 8 8 10 13 13 10 7 6 6 6 6 5 5 3 1 1 2 2 2 1 0 1 2 2 2 1 1 1 0 0 0 0 0 0 0 0
0 0 0 1 1 1 2 5 12 19 22 21 16 11 11 13 16 17 14 10 8 10 12 12 10 9 7 4 3 2 2 1 0 0 1 2 3 3 3 2 2 1 0 0 0 0 0 0 0
0 0 0 0 0 0 1 5 12 19 24 22 17 14 14 16 19 22 20 16 14 16 18 16 13 12 10 6 4 2 1 0 0 0 0 1 2 3 3 3 3 2 0 0 0 0 0 1 1
0 0 0 0 0 1 3 6 11 16 21 20 17 16 17 18 21 26 27 25 24 25 24 19 15 13 10 8 5 3 1 1 1 1 1 1 3 4 4 3 3 2 1 0 0 0 0 0 0
0 0 0 0 0 1 4 5 7 11 14 17 19 20 20 19 22 29 32 33 32 31 28 23 16 12 10 9 7 4 1 1 1 2 2 3 4 5 4 2 2 3 2 1 0 0 0 0 0
0 0 0 0 1 2 4 4 5 7 11 14 18 22 23 24 27 34 37 38 37 35 32 27 19 13 10 9 8 5 2 0 1 2 3 4 5 6 4 2 2 3 2 1 0 1 1 1 0
0 0 0 0 1 2 3 3 4 7 11 13 15 19 24 29 34 39 42 41 40 38 34 29 23 16 11 9 8 6 4 3 3 3 2 4 6 7 6 4 2 2 1 1 0 1 2 2 1
0 0 0 0 1 1 1 1 2 6 11 13 14 17 24 31 36 41 43 43 42 39 35 31 27 21 13 10 9 8 8 8 7 5 3 4 7 8 8 6 3 2 1 1 1 1 2 3 2
0 0 0 0 0 0 0 0 1 4 10 14 14 17 25 31 36 40 44 46 44 41 36 34 31 25 17 13 11 9 10 10 9 7 5 6 8 8 7 7 6 4 4 4 4 4 4 6 7
0 0 0 0 0 0 0 0 0 2 8 14 15 18 24 29 33 39 44 46 46 43 39 37 35 30 24 19 15 11 10 10 9 7 7 8 8 7 6 6 7 7 7 7 7 7 6 8 9
0 0 0 0 0 0 0 0 1 2 6 12 17 20 22 25 29 34 39 43 45 43 42 39 37 33 28 25 21 17 13 10 9 7 8 9 9 7 6 4 4 6 7 8 8 8 7 7 7
0 0 0 0 0 0 0 1 2 4 6 10 16 20 20 21 25 29 34 39 43 44 44 42 38 34 31 29 27 23 18 13 11 9 8 9 10 9 6 3 2 5 8 8 8 7 6 5 6
0 0 0 0 0 0 0 1 4 6 7 10 15 20 19 20 26 30 32 37 42 47 48 47 43 38 35 32 29 27 24 19 16 13 10 10 12 11 8 4 3 6 11 12 10 8 6 5 4
0 0 0 0 0 0 0 1 3 6 9 12 17 21 20 21 26 30 32 34 39 45 49 51 49 46 42 36 31 28 27 23 21 19 15 13 13 13 11 8 6 9 14 14 11 9 7 5 4
0 0 0 0 0 0 0 1 3 5 9 13 16 19 20 21 24 27 29 32 34 40 47 52 54 53 50 43 36 32 29 26 24 22 19 16 15 15 15 12 11 14 18 16 12 10 9 7 6
0 0 0 0 0 0 0 1 3 5 8 12 15 17 20 22 23 24 29 32 33 37 45 51 55 57 54 48 41 36 32 30 28 23 18 16 15 15 16 16 16 19 21 19 15 12 10 9 8

GEFSSGP_con_prob3kmehi_252.txt.gz
EHI
3 1 0 0 0 0 0 0 0 0 0 0 0 0 0 0 0 0 0 0 0 0 1 3 5 6 6 5 5 5 6 5 3 1 1 0 0 0 0 0 0 0 0 0 0 0 0 1 3
1 0 0 0 0 0 0 0 0 0 0 0 0 0 0 0 0 0 0 0 0 0 0 3 6 7 7 6 5 5 4 4 3 2 1 1 0 0 0 0 0 0 0 0 0 0 0 1 3
1 1 0 0 0 0 0 0 0 0 0 0 0 0 0 0 0 0 0 0 0 0 0 2 4 5 6 5 4 4 4 4 4 3 2 1 0 0 0 0 0 0 0 0 0 0 0 1 2
3 2 0 0 0 0 0 0 0 0 0 0 0 0 0 0 0 0 0 0 0 0 0 1 1 2 3 3 3 5 5 5 4 4 3 2 1 0 0 0 0 0 0 0 0 0 0 0 0
2 1 0 0 0 0 0 0 0 0 0 0 0 0 0 0 0 0 0 0 0 0 0 0 0 1 2 2 4 6 6 5 4 3 3 1 1 1 1 0 0 0 0 0 0 0 0 0 0
2 1 0 0 0 0 0 0 0 0 0 0 0 0 0 0 0 0 0 0 0 0 0 0 0 1 2 3 4 6 6 4 3 3 2 1 0 0 1 1 1 0 0 0 0 0 0 0 0
2 1 0 0 0 0 0 0 0 0 0 0 0 0 0 0 0 0 0 0 0 0 0 0 0 1 2 2 3 5 6 4 3 2 1 1 1 0 1 2 2 1 1 1 1 1 0 0 0
1 0 0 0 1 1 1 0 0 0 0 0 0 0 0 0 0 0 0 0 0 0 0 0 0 0 1 1 1 4 5 3 1 1 1 1 1 0 0 1 2 2 2 2 2 2 1 1 1
0 0 0 0 0 0 0 0 0 0 1 1 0 0 0 1 1 0 0 0 0 0 0 0 0 0 0 0 0 2 3 1 0 0 0 1 1 0 0 0 1 1 2 3 3 3 2 2 2
1 1 1 0 0 0 0 0 0 0 1 1 1 1 2 3 2 0 0 0 0 0 0 0 1 0 0 0 0 1 1 1 0 0 0 0 0 0 0 0 0 1 1 2 3 3 3 2 1
2 2 2 1 1 1 0 0 0 0 0 2 4 4 5 4 2 0 0 0 0 0 0 0 0 0 0 0 0 0 0 0 0 0 0 0 0 0 0 0 0 0 0 1 1 1 1 1 0
3 3 2 1 1 1 0 0 0 1 2 5 9 9 7 4 1 0 0 0 0 1 0 0 0 0 0 0 0 0 0 0 0 0 0 0 0 0 0 0 0 0 0 0 0 0 0 0 0
2 2 2 1 1 1 1 0 2 4 5 9 13 11 7 3 1 0 0 0 0 0 0 0 0 0 0 0 0 0 0 0 0 0 0 0 0 0 0 0 0 0 0 0 0 0 0 0 0
1 1 2 2 2 2 2 2 3 7 10 14 14 11 6 3 1 1 1 1 0 0 0 0 0 0 0 0 0 0 0 0 0 0 0 0 0 0 0 0 0 0 0 0 0 0 0 0 0
0 0 2 2 2 2 2 2 4 9 14 16 15 11 6 2 0 1 2 1 0 0 0 0 0 0 0 0 0 0 0 0 0 0 0 0 0 0 0 0 0 0 0 0 0 0 0 0 0
0 0 1 2 2 2 1 1 4 11 17 18 15 11 7 4 2 1 1 1 0 0 0 0 0 0 0 0 0 0 0 0 0 0 0 0 0 0 0 0 0 0 0 0 0 0 0 0 0
0 0 0 1 2 3 2 1 4 12 17 17 14 10 9 7 5 2 0 0 0 0 0 0 0 1 0 0 0 0 0 0 0 0 0 0 0 0 0 0 0 0 0 0 0 0 0 0 0
0 0 0 1 2 3 3 2 4 11 17 16 12 8 7 8 6 4 2 1 0 0 0 0 0 1 1 1 1 1 0 0 0 0 0 0 0 0 1 1 0 0 0 0 0 0 0 0 0
0 0 0 0 1 2 2 1 4 11 17 17 13 9 6 5 4 5 5 2 0 0 0 0 1 1 2 2 2 1 0 0 1 1 1 1 0 0 1 1 1 0 0 0 0 0 0 1 1
0 0 0 0 0 1 1 1 3 9 15 16 14 11 7 4 4 6 7 4 1 1 1 2 3 3 3 2 1 1 0 0 1 2 2 2 1 1 1 2 2 1 0 0 0 1 1 1 2
0 0 0 0 0 0 1 2 2 5 9 11 12 11 9 8 8 9 9 7 4 3 4 6 5 4 3 2 1 1 1 1 2 3 3 3 3 2 2 3 3 2 1 0 0 0 0 1 1
0 0 0 0 0 0 1 1 1 2 4 6 9 11 11 11 12 13 14 13 10 8 8 8 7 4 2 2 2 3 4 4 3 3 3 3 3 3 3 4 4 3 1 0 0 0 0 0 0
0 0 0 0 0 0 0 0 1 2 3 4 7 11 12 14 16 18 18 17 14 11 10 10 8 4 2 1 2 4 5 4 3 3 3 2 3 3 4 4 5 4 3 1 0 0 0 0 0
0 0 0 0 0 0 0 0 0 1 2 3 5 8 12 14 17 19 19 18 16 14 13 12 9 6 4 3 3 4 4 3 2 2 2 3 3 3 3 4 4 5 4 2 0 0 1 1 1
0 0 0 0 0 0 0 0 0 0 1 3 4 7 9 11 14 17 19 19 18 18 18 16 13 9 7 5 4 4 3 2 1 1 2 3 3 4 4 4 4 5 5 3 2 2 2 3 2
0 0 0 0 0 0 0 0 0 1 3 5 6 7 7 8 10 14 18 20 21 23 23 22 20 15 10 8 7 5 3 2 1 0 1 2 4 5 5 5 5 6 6 5 5 5 4 3 2
0 0 0 0 0 0 0 0 1 3 5 7 8 9 8 8 9 11 15 19 21 23 24 25 24 20 15 12 10 8 6 5 3 1 1 2 3 5 5 5 5 6 6 7 8 8 6 3 1
0 0 0 0 0 0 0 0 1 3 6 8 9 10 9 9 10 10 13 18 19 19 22 24 24 23 20 18 16 12 10 9 7 5 4 4 4 4 5 5 6 6 6 7 8 10 9 5 3
0 0 0 0 0 0 0 1 2 4 5 6 8 9 9 9 10 11 12 16 18 19 21 24 24 23 23 23 21 17 13 11 11 11 9 6 5 4 5 6 5 5 6 8 10 11 12 10 8
0 0 0 0 0 0 1 2 3 4 4 4 6 8 8 9 10 12 13 15 19 21 22 24 25 24 24 26 26 22 17 13 13 14 11 7 5 5 5 5 5 4 6 10 11 12 13 12 12

GEFSSGP_con_prob3kmehi_258.txt.gz
EHI
2 2 5 8 5 1 0 0 0 0 0 0 0 0 0 0 0 0 0 1 1 1 0 0 0 0 0 0 0 1 1 1 0 0 0 0 0 0 0 0 0 0 1 1 1 0 0 0 0
2 3 7 8 4 0 0 0 0 0 0 0 0 0 0 0 0 0 0 0 0 0 0 0 0 0 0 0 0 0 0 0 0 0 0 0 0 0 0 0 0 0 0 0 0 0 0 0 0
4 5 7 5 2 0 0 0 0 0 0 0 0 0 0 0 0 0 0 0 0 0 0 0 0 0 0 0 0 0 0 0 0 0 0 0 0 0 0 0 0 0 0 0 0 0 0 0 0
7 8 5 2 0 0 0 0 0 0 0 0 0 0 0 0 0 0 0 0 0 0 0 0 0 0 0 0 0 0 0 0 0 0 0 0 0 0 0 0 0 0 0 0 0 0 0 0 0
9 7 3 0 0 0 0 0 0 0 0 0 0 0 0 0 0 1 1 1 0 0 1 1 0 0 0 0 0 0 0 0 0 0 0 0 0 0 0 0 0 0 0 0 0 0 0 0 0
6 4 1 0 0 0 0 0 0 0 0 0 0 0 0 0 0 1 1 1 0 1 2 2 1 0 0 0 0 0 1 1 1 0 0 0 0 0 0 0 0 0 0 0 0 0 0 0 0
2 1 0 0 0 0 0 0 0 0 0 0 0 0 0 0 0 0 0 0 0 1 2 2 1 0 0 0 0 0 1 2 1 0 0 0 0 0 0 0 0 0 0 0 0 0 0 0 0
1 0 0 0 0 1 1 0 0 0 0 0 0 0 2 3 1 0 0 0 0 0 1 1 0 0 0 0 0 0 0 1 1 0 0 0 0 0 0 0 0 0 0 0 0 0 0 0 0
2 1 0 0 0 1 1 0 0 0 0 0 0 2 5 6 4 2 1 0 0 0 0 0 0 0 0 0 1 1 0 0 0 0 0 0 0 0 0 0 0 0 0 0 0 0 0 0 0
2 1 0 0 0 1 1 1 1 1 1 0 2 6 9 8 6 4 3 1 0 0 0 0 0 0 0 0 1 2 1 1 0 0 0 0 0 0 0 0 0 0 0 0 0 0 1 1 1
1 0 0 0 0 0 0 1 2 2 2 1 5 11 14 12 9 6 4 2 0 0 0 0 0 0 0 0 1 2 3 2 0 0 0 0 0 0 0 0 0 0 0 0 0 1 1 0 0
0 0 0 0 0 0 0 1 2 2 2 3 9 16 17 14 11 7 3 1 0 0 0 0 0 0 0 0 0 1 2 1 0 0 0 0 0 0 0 0 0 0 0 0 0 0 0 0 0
0 0 0 0 0 0 0 0 1 1 1 5 13 18 16 13 11 8 4 1 0 0 0 0 0 0 0 0 0 0 0 0 0 0 0 0 0 0 0 0 0 0 0 1 1 0 0 0 0
0 0 0 0 0 0 0 0 0 0 1 6 14 17 15 12 10 8 5 3 1 1 0 0 0 0 0 0 0 0 0 0 0 0 0 0 0 0 0 0 0 0 0 1 1 0 0 0 0
0 0 0 0 0 0 0 0 0 0 1 6 12 15 14 11 9 7 6 5 4 2 2 2 1 0 0 0 0 0 0 0 0 0 0 0 0 0 0 0 0 0 0 1 1 0 0 0 0
0 0 0 0 0 0 0 0 1 1 2 5 9 13 14 12 8 5 5 6 5 4 4 4 2 1 1 2 1 1 0 0 0 0 0 0 0 1 0 0 0 0 0 0 0 0 0 0 0
0 0 0 0 0 0 0 0 1 1 2 5 9 13 16 15 9 5 4 4 5 5 5 5 3 2 2 2 2 2 1 0 0 1 1 0 0 0 0 0 1 0 0 1 1 1 1 1 1
0 0 0 0 0 0 0 0 1 1 1 4 9 13 16 16 10 6 4 4 4 5 5 5 4 3 2 2 2 2 2 1 1 2 3 1 0 0 0 1 2 2 1 2 2 4 4 3 3
0 0 0 0 0 0 0 1 1 1 2 5 11 14 15 14 11 9 7 5 5 5 5 5 5 4 3 2 2 3 3 2 2 3 2 1 0 0 1 2 4 5 5 5 5 5 6 6 5
0 0 0 0 0 0 0 1 2 3 3 7 12 15 15 14 13 13 12 9 8 8 7 6 6 7 6 5 4 4 4 3 2 1 1 0 0 0 2 4 5 7 9 9 8 8 8 7 6
0 0 0 0 0 0 0 1 2 3 4 6 11 15 16 16 17 18 18 15 13 12 11 8 8 8 9 8 6 5 4 2 1 0 0 0 0 0 2 5 6 7 8 10 10 9 8 7 7
0 0 0 0 0 0 0 0 1 2 3 5 9 12 14 17 20 21 21 20 18 16 15 12 11 11 11 12 10 8 5 2 1 1 1 1 1 1 2 5 8 8 7 7 8 7 7 7 7
0 0 0 0 0 0 0 0 0 1 3 5 7 10 12 17 21 21 20 19 19 18 18 18 18 18 17 16 14 13 9 5 4 4 5 4 3 2 2 4 8 8 6 6 7 7 6 6 6
0 0 0 0 0 0 0 0 0 0 1 2 5 8 11 16 20 21 20 19 18 17 19 23 27 28 26 22 18 16 14 10 8 9 9 6 4 4 3 4 7 7 6 6 8 9 7 6 7
0 0 0 0 0 0 0 0 0 0 0 0 2 6 10 14 18 20 21 21 18 17 20 26 33 35 33 28 23 19 16 14 12 12 10 5 4 4 4 5 7 7 7 7 9 10 9 8 7
0 0 0 0 0 0 0 0 0 1 1 0 1 5 11 15 17 19 21 22 20 19 21 27 33 36 35 33 28 22 18 15 14 13 9 5 3 4 6 8 10 11 10 11 11 10 9 8 7
0 0 0 0 0 0 0 0 0 1 2 1 1 5 11 16 17 18 21 23 22 20 21 25 31 36 36 34 30 25 20 17 15 13 11 8 7 8 10 11 11 12 14 14 14 11 9 9 8
0 0 0 0 0 0 0 0 1 2 2 2 2 5 11 15 16 18 21 25 25 22 20 23 27 31 33 32 30 25 21 19 17 16 15 14 14 15 16 14 13 13 15 17 16 13 13 12 10
0 0 0 0 0 0 0 0 1 2 3 3 4 7 11 13 14 18 22 26 28 26 23 24 26 27 28 28 27 25 22 21 20 20 19 19 19 21 20 18 16 15 18 20 17 14 14 14 13
0 0 0 0 0 0 0 0 1 2 3 4 6 9 11 11 13 18 23 28 30 30 28 27 27 26 26 26 25 24 22 21 22 22 22 22 22 23 22 21 19 18 21 22 19 14 13 14 13

GEFSSGP_con_prob3kmehi_264.txt.gz
EHI
2 7 20 33 28 11 1 0 0 0 0 0 0 1 1 1 0 0 1 2 2 1 0 0 0 0 0 1 2 4 4 3 2 2 2 1 1 3 4 3 2 2 1 0 0 0 0 0 0
6 15 28 31 20 6 0 0 0 0 0 0 0 0 0 0 0 0 1 2 2 1 0 0 1 0 0 1 2 3 4 4 2 2 1 0 1 2 3 2 1 1 0 0 0 0 0 0 0
16 26 33 25 10 2 0 0 0 0 0 0 0 0 0 0 0 0 2 3 3 1 0 1 2 2 1 1 1 2 3 3 2 2 2 1 0 1 1 0 0 0 0 0 0 1 1 0 0
32 34 29 15 4 0 0 0 0 0 0 0 0 0 0 0 0 1 3 3 2 1 0 1 3 3 3 3 2 3 3 3 3 3 3 1 0 0 0 0 0 0 0 0 0 1 1 0 0
39 31 18 6 1 0 0 0 0 0 0 0 0 0 0 0 0 2 3 3 3 2 1 2 4 4 4 4 4 4 3 3 3 3 2 1 0 0 0 0 0 0 0 0 0 1 1 0 0
32 22 8 2 0 0 0 0 0 0 0 0 0 0 0 0 1 3 5 5 6 6 4 3 4 3 3 4 6 5 3 3 3 3 1 1 0 0 0 0 0 0 0 0 0 0 0 0 0
21 13 4 0 0 0 0 0 0 0 0 0 0 1 2 3 3 4 5 8 10 9 6 3 2 2 2 3 4 4 2 2 3 2 1 0 0 0 0 0 0 0 0 0 0 0 1 1 0
11 7 2 0 0 0 0 0 0 0 1 1 1 3 6 6 4 3 5 8 12 10 5 2 2 2 2 1 3 3 1 1 2 1 0 0 0 0 1 1 1 1 1 0 0 1 2 3 4
6 4 1 0 0 0 0 0 0 1 2 2 3 5 8 8 6 5 4 6 9 8 5 3 2 3 2 1 3 2 1 1 1 1 1 1 1 1 3 4 6 6 4 3 3 4 5 7 8
3 2 1 0 0 0 0 0 0 1 2 2 4 7 9 9 8 6 3 3 5 7 5 3 2 2 2 2 3 2 3 5 4 4 3 3 2 2 4 7 10 9 8 8 8 7 7 7 7
2 1 0 0 0 0 1 1 1 2 3 3 7 11 11 9 8 6 3 1 3 5 5 2 1 2 3 4 3 3 5 9 8 7 5 3 2 2 4 7 9 9 8 9 9 6 4 4 5
1 0 0 0 0 0 1 2 2 4 4 6 10 12 11 9 8 6 4 2 2 4 4 3 4 7 9 8 4 2 5 8 8 7 4 2 2 1 3 6 6 6 6 6 6 4 3 4 5
0 0 0 0 0 0 1 1 2 5 6 7 9 10 9 7 7 7 7 5 4 4 4 5 9 14 14 11 7 4 5 6 6 6 5 3 1 0 1 3 4 4 4 5 5 6 7 7 7
0 0 0 0 0 0 0 0 2 6 8 7 8 9 8 6 7 9 12 10 9 9 8 7 11 15 14 9 7 6 6 5 6 8 8 5 3 1 1 2 3 4 6 8 10 12 13 12 12
0 0 0 0 0 0 0 0 2 6 9 9 10 11 11 10 10 12 14 14 15 17 16 10 8 11 10 6 4 4 4 5 6 9 10 9 6 5 4 4 4 5 10 15 16 16 16 15 14
0 0 0 0 0 0 1 0 1 5 9 12 14 14 15 16 15 15 14 16 21 25 24 15 9 10 10 5 3 3 4 6 7 8 10 9 7 6 6 7 7 7 12 17 16 14 14 12 9
0 0 0 0 0 0 0 0 1 4 9 13 17 18 18 18 19 18 16 19 28 35 32 21 14 15 13 8 6 7 8 9 7 7 10 10 7 6 7 9 10 9 11 12 10 11 14 12 9
0 0 0 0 0 0 0 1 2 4 9 15 21 23 22 21 22 22 21 25 36 44 42 32 25 23 19 13 10 10 11 11 10 11 14 13 8 8 9 11 11 10 10 9 7 10 15 16 14
0 0 0 0 0 0 0 2 3 4 7 16 24 29 29 29 29 29 28 33 42 48 49 45 39 34 26 18 14 12 11 12 14 18 23 19 11 8 10 12 12 10 10 9 8 9 13 15 15
0 0 0 0 0 0 0 1 2 2 5 13 24 32 36 37 39 39 36 37 44 50 51 50 46 41 33 23 17 12 10 12 15 22 28 23 13 8 9 13 13 11 12 13 13 12 12 12 13
0 0 0 0 0 0 0 0 1 1 3 9 19 29 37 43 48 48 43 40 43 49 51 48 48 46 39 30 20 14 11 11 14 21 26 23 17 12 11 14 15 13 14 17 19 19 17 15 14
0 0 0 0 0 0 0 0 0 1 3 7 13 22 33 42 49 51 48 44 43 47 50 52 53 51 46 36 25 18 14 12 14 20 25 26 21 17 15 15 16 15 15 17 19 20 20 18 15
0 0 0 0 0 0 0 0 0 1 3 5 9 16 25 36 46 51 53 51 46 46 51 58 61 58 51 40 29 23 18 16 17 22 27 27 24 20 17 17 18 18 17 16 18 19 19 17 16
0 0 0 0 0 0 0 0 0 1 2 2 6 12 19 28 40 49 55 57 52 49 52 60 66 65 57 45 34 28 25 23 23 25 25 23 21 20 20 22 26 25 20 17 19 20 18 16 16
0 0 0 0 0 0 0 0 0 0 1 1 4 10 16 22 30 42 53 59 57 52 53 61 68 68 62 51 39 33 31 29 27 27 24 19 17 20 24 31 36 33 25 21 21 21 19 17 16
0 0 0 0 0 0 0 0 0 0 1 2 3 8 15 19 24 35 49 58 58 53 54 61 68 69 64 57 48 41 37 33 28 26 22 18 17 20 27 38 43 38 30 26 25 23 20 19 18
0 0 0 0 0 0 0 0 0 1 1 2 4 9 14 18 24 32 42 51 53 51 54 62 70 72 68 63 57 51 46 38 30 26 22 19 19 21 29 41 45 42 36 34 34 29 23 22 22
0 0 0 0 0 0 0 0 1 3 3 4 7 11 14 18 25 31 34 39 42 47 54 63 73 76 72 68 61 54 50 44 35 28 25 23 22 25 32 42 46 44 41 40 40 35 29 28 29
0 0 0 0 0 0 0 0 2 5 6 7 10 13 15 17 22 26 26 27 32 40 51 61 71 75 72 68 62 55 51 47 38 32 29 28 28 30 36 43 45 44 43 43 42 38 35 35 36
0 0 0 0 0 0 0 0 2 5 7 9 11 14 15 15 19 22 21 21 27 35 46 57 66 71 71 68 62 58 55 49 40 33 32 33 33 33 37 43 45 43 44 44 42 38 37 39 41

GEFSSGP_con_prob3kmehi_270.txt.gz
EHI
1 1 1 2 1 0 0 0 0 0 0 0 0 0 0 0 0 0 0 0 0 0 1 2 2 3 5 6 6 4 4 3 3 3 3 4 5 5 4 5 4 2 1 0 0 0 0 0 0
1 1 1 1 1 0 0 0 0 0 0 0 0 0 0 0 0 0 0 0 0 0 1 2 3 4 6 8 7 6 4 2 1 2 3 3 4 4 4 4 3 1 0 0 0 0 0 0 0
2 2 2 2 1 0 0 0 0 0 0 0 0 0 0 0 0 1 0 0 0 0 1 1 3 5 7 8 9 9 5 1 0 1 2 3 3 3 3 3 2 1 0 0 0 0 0 0 0
3 3 2 2 1 0 0 0 1 1 1 1 0 0 0 0 1 1 0 0 0 0 1 2 3 6 6 7 8 9 6 2 1 0 1 1 2 3 3 3 2 1 0 1 1 0 0 0 0
1 2 1 1 1 0 0 1 2 2 1 1 0 0 0 1 1 1 0 0 0 0 1 2 3 4 5 6 7 7 6 4 2 1 0 0 1 1 3 3 2 1 0 1 2 1 1 1 1
1 1 0 0 0 0 0 1 2 2 2 2 1 0 1 2 2 1 0 0 0 0 0 1 1 1 3 6 7 6 5 3 2 1 0 0 0 1 2 3 3 1 0 1 2 2 3 3 2
2 1 0 0 0 0 0 1 1 2 3 3 1 0 1 3 2 1 0 0 0 0 0 0 0 0 2 6 7 5 3 1 1 0 0 0 0 1 2 4 4 3 1 1 2 3 3 2 1
2 1 0 0 0 0 0 0 0 1 2 3 1 1 2 3 3 1 0 0 0 0 0 0 0 0 1 3 5 3 1 0 0 0 0 0 0 0 1 4 5 3 2 3 4 4 4 4 3
1 0 0 1 1 1 0 1 1 0 1 2 2 3 5 7 6 4 2 0 0 0 0 0 0 0 0 1 1 1 0 0 0 0 0 0 0 0 0 3 7 8 7 8 9 10 9 8 7
0 0 0 1 2 2 1 1 1 1 2 3 5 7 9 11 12 9 5 2 0 0 0 0 0 0 0 0 0 0 0 0 0 0 0 0 0 0 0 2 7 10 11 11 12 13 12 9 6
0 0 0 1 1 2 2 1 1 2 3 5 8 9 11 13 14 11 7 5 2 1 0 0 0 1 1 0 1 1 1 1 1 1 0 0 0 0 0 1 3 5 6 7 7 7 7 5 2
0 0 0 0 1 2 2 2 2 1 3 6 9 11 12 13 13 10 8 6 5 3 1 0 0 1 1 1 2 3 3 3 2 2 1 1 1 1 1 0 0 0 1 1 1 1 1 1 0
0 0 0 0 0 1 2 4 4 4 5 8 10 11 11 10 9 8 6 6 6 5 3 1 1 1 1 0 2 4 4 4 3 3 3 2 2 2 1 1 0 0 0 0 0 0 0 0 0
0 0 0 0 0 0 2 5 8 8 9 9 10 11 9 8 6 5 6 7 7 6 5 4 4 3 1 0 1 2 3 3 2 2 2 2 2 2 1 1 1 0 0 1 0 0 0 0 0
0 0 0 0 0 0 1 5 9 12 11 11 11 10 10 9 7 5 6 7 7 8 8 7 6 5 3 2 1 2 3 3 2 2 1 1 2 2 1 0 0 0 0 0 0 0 0 0 0
0 0 0 0 0 0 0 2 7 11 12 12 10 10 11 12 11 9 8 7 8 10 11 9 8 7 6 4 3 4 5 4 3 2 1 1 2 3 2 0 0 0 0 0 0 0 0 0 0
0 0 0 0 0 0 0 2 5 9 12 12 11 11 12 12 12 13 12 10 10 12 13 12 9 8 7 5 4 4 4 4 4 3 1 2 3 3 1 0 0 0 0 0 0 0 0 0 0
0 0 0 0 0 0 0 2 5 8 10 12 12 13 13 12 12 15 16 15 15 14 13 12 10 8 7 6 5 4 3 3 3 2 1 2 2 1 1 0 0 0 0 0 0 0 1 1 1
0 0 0 0 0 0 0 2 5 7 9 12 14 16 16 15 14 16 17 20 22 19 15 15 13 9 7 7 6 4 3 3 1 1 1 2 2 1 1 0 0 0 0 0 0 1 1 1 1
0 0 0 0 0 0 0 1 3 5 7 11 16 18 19 18 17 19 21 25 28 27 22 20 17 12 9 8 6 4 3 2 1 0 1 2 2 1 0 0 0 0 0 0 1 2 1 1 2
0 0 0 0 0 0 0 0 1 4 6 9 14 19 22 22 21 22 27 31 34 35 31 26 21 16 13 10 8 6 4 2 0 0 1 3 3 2 1 0 0 0 1 2 2 2 2 1 2
0 0 0 0 0 0 0 0 1 4 7 9 13 19 23 25 25 26 30 34 37 38 37 32 27 23 18 15 12 9 6 3 1 1 3 5 5 4 2 1 1 1 2 3 3 2 2 2 2
0 0 0 0 0 0 0 0 1 4 8 11 14 18 22 24 27 29 32 36 39 39 39 37 34 30 26 21 16 13 10 6 3 3 5 6 6 5 4 3 3 2 2 4 4 3 2 2 2
0 0 0 0 0 0 0 0 1 3 8 13 16 19 21 23 28 32 34 37 39 39 38 38 37 34 31 26 20 16 14 10 6 5 6 7 8 7 6 6 5 4 4 5 6 5 3 3 3
0 0 0 0 0 0 0 0 1 3 6 12 16 20 23 25 30 35 38 39 39 39 38 39 37 34 32 29 24 20 18 15 10 7 7 9 9 9 8 8 7 7 9 10 9 7 6 6 5
0 0 0 0 0 0 0 1 2 3 5 9 14 19 25 27 29 34 37 38 38 38 39 41 39 35 32 30 27 25 22 18 13 9 9 9 10 10 9 10 10 10 14 16 14 11 10 9 7
0 0 0 0 0 0 0 1 2 2 4 8 13 19 24 26 27 29 31 33 35 37 40 42 41 38 35 34 32 30 27 21 15 11 10 9 9 9 9 9 10 12 16 20 19 16 13 10 7
0 0 0 0 0 0 0 0 1 3 5 10 14 18 22 24 24 25 27 30 33 36 39 41 40 40 39 38 35 32 30 25 20 16 13 11 9 8 8 9 10 12 16 20 20 18 14 9 6
0 0 0 0 0 0 0 0 1 4 9 13 17 19 21 23 23 25 28 31 34 36 38 38 38 38 40 38 35 33 31 27 23 19 16 13 11 10 9 10 11 13 17 19 19 18 16 12 8
0 0 0 0 0 0 0 0 1 5 11 17 20 21 22 22 23 25 29 32 33 36 38 36 35 37 39 38 35 34 31 27 23 19 17 15 13 11 10 11 13 15 17 19 19 18 18 15 11

GEFSSGP_con_prob3kmehi_276.txt.gz
EHI
2 2 1 0 0 0 0 0 0 0 0 0 0 0 0 0 0 0 0 0 0 0 1 2 4 2 1 1 3 4 2 1 0 0 0 0 0 0 0 0 0 0 0 0 0 0 0 1 0
1 1 0 0 0 0 0 0 0 0 0 0 0 0 0 0 0 0 0 0 0 0 0 1 2 1 1 1 3 3 3 2 1 0 0 0 0 0 0 0 0 0 0 0 0 0 0 1 1
0 0 0 0 0 0 0 0 0 0 0 0 0 0 0 0 0 0 0 0 0 0 0 0 0 1 1 2 2 3 3 3 2 0 0 0 0 0 0 0 0 0 0 0 0 0 0 0 0
0 0 0 0 0 0 0 0 0 0 0 0 0 0 0 0 0 0 0 0 0 0 0 0 0 0 1 2 2 3 3 3 1 0 0 0 0 0 0 0 0 0 0 0 0 0 0 0 0
0 0 0 0 0 0 0 0 0 0 0 1 1 1 0 0 0 0 0 0 0 0 0 0 0 0 1 2 2 3 3 2 1 0 0 0 0 0 1 1 1 1 0 0 0 0 0 0 0
0 0 0 0 0 0 0 0 1 1 2 2 2 2 1 0 0 0 0 0 0 0 0 0 0 0 0 1 2 2 2 2 1 0 0 0 0 0 1 1 1 0 0 0 0 0 0 0 0
0 0 0 0 0 0 0 0 1 2 3 3 3 3 2 0 0 0 0 0 0 0 0 0 0 0 0 1 2 2 2 1 1 0 0 0 0 0 1 1 0 0 0 0 0 1 1 0 0
0 0 0 0 0 0 0 0 0 1 2 3 3 2 1 1 0 0 0 0 0 0 0 0 0 0 0 0 1 2 1 1 0 0 0 0 0 0 0 0 0 0 0 0 0 1 1 1 1
0 0 0 0 0 0 0 0 0 1 2 2 2 2 2 2 1 0 0 0 0 0 0 0 0 0 0 0 0 1 1 0 0 0 0 0 0 0 0 0 0 0 0 0 1 1 1 1 2
0 0 0 0 0 0 0 0 0 1 2 2 3 4 4 4 1 0 0 0 0 0 0 0 0 0 0 0 0 0 0 0 0 0 0 0 0 0 0 0 0 0 0 0 1 1 1 1 1
0 0 0 0 0 0 0 0 0 0 1 2 4 6 7 6 3 0 0 0 0 0 0 0 0 0 0 0 0 0 0 0 0 0 0 0 0 0 0 0 0 0 0 0 1 1 0 0 0
0 0 0 0 0 1 1 1 0 0 0 1 4 7 8 8 4 1 0 0 0 0 0 0 0 0 0 0 0 0 0 0 0 0 0 0 0 0 0 0 0 0 0 0 0 0 0 0 0
0 1 1 1 1 2 2 2 1 2 2 3 5 7 8 8 5 1 0 0 0 0 0 0 0 0 0 0 0 0 0 0 0 0 0 0 0 0 0 0 0 0 0 0 0 0 0 0 0
1 1 2 2 2 2 2 1 2 3 4 4 5 7 7 7 5 2 1 0 0 0 0 0 0 0 0 1 1 0 0 0 0 0 0 0 0 0 0 0 0 0 0 0 0 0 0 0 0
0 1 1 1 1 1 1 0 1 4 5 5 4 5 7 7 6 4 2 1 0 1 1 1 0 0 0 1 1 0 0 0 0 0 0 0 0 0 0 0 0 0 0 0 0 0 0 0 0
0 0 0 0 0 0 0 0 2 4 6 5 4 5 7 7 5 3 2 2 2 2 2 2 1 0 0 1 1 0 0 0 0 0 0 0 0 0 0 0 0 0 0 0 0 0 0 0 0
0 0 0 0 0 0 0 1 3 4 4 5 6 7 7 7 6 4 3 3 3 3 4 4 2 1 0 0 0 0 0 0 0 0 0 0 0 0 0 0 0 0 0 0 0 0 0 0 0
0 0 0 0 0 0 0 1 3 4 3 4 6 7 8 9 9 7 5 4 3 3 4 4 3 1 0 0 0 0 0 0 0 0 0 0 0 0 1 1 1 0 0 0 0 0 0 0 0
0 0 0 0 0 0 0 1 3 4 3 4 5 6 8 10 10 9 7 5 4 3 2 2 2 1 1 1 1 0 0 0 0 0 0 0 0 1 2 2 1 0 0 0 0 0 0 0 0
0 0 0 0 0 0 0 0 2 3 3 3 3 4 7 9 11 11 9 7 5 4 3 2 2 3 3 2 1 0 0 0 0 0 0 0 1 3 4 3 1 0 0 0 0 0 0 0 0
0 0 0 0 0 0 0 0 0 1 1 1 1 2 5 9 11 12 11 9 7 6 4 4 5 6 5 3 1 1 0 0 0 0 0 0 2 4 4 2 1 0 0 0 0 1 1 1 0
0 0 0 0 0 0 0 0 0 0 0 0 0 1 4 8 10 11 11 10 9 8 6 5 7 8 7 4 2 1 0 0 0 0 0 0 1 2 2 2 0 0 0 0 0 1 2 2 1
0 0 0 0 0 0 0 0 0 0 0 0 0 0 2 5 8 9 11 11 11 10 9 8 8 9 8 5 3 1 0 0 0 0 0 0 0 0 1 2 1 0 0 0 0 1 1 1 0
0 0 0 0 0 0 0 0 0 0 0 0 0 0 2 4 6 9 11 13 13 12 12 12 12 11 9 6 3 2 1 0 0 0 0 0 0 0 1 2 2 1 1 0 1 1 1 0 0
0 0 0 0 0 0 0 0 0 0 0 0 0 1 3 5 6 8 11 15 17 16 15 15 15 14 12 9 6 5 3 2 1 0 0 0 0 0 0 1 3 3 2 2 2 3 2 1 1
0 0 0 0 0 0 0 0 0 0 0 0 0 2 4 6 6 8 10 15 18 19 18 18 18 17 16 15 11 8 6 6 5 3 1 0 0 0 0 1 4 4 3 3 4 5 4 4 4
0 0 0 0 0 0 0 0 0 0 0 1 2 3 4 5 5 7 9 12 14 16 18 18 19 18 17 17 16 13 10 9 8 6 3 1 0 0 0 1 4 6 6 6 6 6 6 6 5
0 0 0 0 0 0 0 0 0 0 1 3 4 4 4 3 4 6 7 8 9 10 13 15 17 17 17 18 19 18 16 14 11 7 5 2 1 0 0 1 4 7 10 10 9 7 7 6 5
0 0 0 0 0 0 0 0 0 0 1 3 4 4 2 2 3 5 8 9 9 10 12 14 15 17 19 19 20 21 21 18 14 9 6 4 2 1 1 2 4 7 11 12 12 10 8 7 7
0 0 0 0 0 0 0 0 0 0 0 2 4 4 1 1 2 6 10 12 13 14 14 15 16 19 21 21 21 22 22 20 17 12 8 5 3 2 2 3 5 8 10 12 13 13 11 9 7

GEFSSGP_con_prob3kmehi_282.txt.gz
EHI
1 3 5 6 4 1 0 0 0 0 0 0 0 0 0 0 0 0 0 0 0 0 0 2 4 3 1 2 2 2 2 2 1 0 0 0 0 0 0 0 0 0 0 0 0 0 0 0 0
1 3 5 5 2 0 0 0 0 0 0 0 0 0 0 0 0 0 0 0 0 0 0 1 1 1 1 2 3 2 2 3 1 0 0 0 0 0 0 0 0 0 0 0 0 0 0 0 0
2 3 4 2 0 0 0 0 0 0 0 0 0 0 0 0 0 0 0 0 0 0 0 0 0 0 0 1 2 2 2 3 2 1 0 0 0 0 0 0 0 0 0 0 0 0 0 0 0
5 5 3 1 0 0 0 0 0 0 0 0 0 0 0 0 0 0 0 0 0 0 1 1 1 0 0 0 1 2 3 3 2 1 0 0 0 0 0 0 0 0 0 0 0 0 0 0 0
7 5 2 0 0 0 0 0 0 0 0 0 0 0 0 0 0 0 0 0 0 0 0 0 0 0 0 0 1 2 3 2 1 0 0 0 0 0 0 0 0 0 0 0 0 0 0 0 0
4 2 0 0 0 0 0 0 0 0 0 0 0 0 0 0 0 0 0 0 0 0 0 0 0 0 0 0 1 2 2 1 0 0 0 0 0 0 0 0 0 0 0 0 0 0 0 0 0
1 0 0 0 0 0 0 0 0 0 0 0 0 0 0 0 0 0 0 0 0 1 0 0 0 0 0 0 1 2 1 0 0 0 0 0 0 0 0 0 0 0 0 0 0 0 0 0 0
1 0 0 0 0 0 0 0 0 0 0 0 0 0 1 2 1 1 0 0 0 0 0 0 0 0 0 0 1 1 1 1 0 0 0 0 0 0 0 0 0 0 0 0 0 0 0 0 1
2 1 0 0 0 0 0 0 0 0 0 0 0 1 4 6 5 3 1 0 0 0 0 0 0 0 0 0 0 1 1 1 1 1 0 0 0 0 0 0 1 1 1 0 0 0 0 0 1
2 1 0 0 0 0 0 0 0 0 0 0 1 4 8 11 9 5 3 1 0 0 1 2 1 1 0 0 0 0 1 1 0 0 0 0 0 0 0 0 1 2 1 0 0 1 0 0 1
1 0 0 0 0 0 0 0 0 0 0 1 3 7 11 12 9 6 3 2 1 1 2 2 2 1 0 0 0 1 1 1 1 0 0 0 0 0 0 0 0 1 1 1 1 1 0 0 0
0 0 0 0 0 0 0 0 0 0 0 1 5 10 13 11 7 4 3 2 1 1 1 1 2 2 1 0 1 3 3 2 2 1 1 1 0 0 0 0 0 0 1 1 1 1 0 0 0
0 0 0 0 0 0 0 0 0 1 1 2 5 10 12 9 5 3 3 2 1 1 0 1 2 2 2 1 2 2 2 2 2 3 3 2 0 0 0 0 0 0 2 2 1 0 0 0 0
0 0 0 0 0 0 0 0 0 1 2 3 4 7 9 7 4 3 3 3 2 2 2 2 1 1 1 1 1 1 1 2 3 3 2 1 0 0 0 1 0 0 1 1 1 0 0 1 1
0 0 0 0 1 0 0 0 1 3 4 3 3 5 7 6 3 3 3 3 4 5 6 5 3 1 1 1 1 1 2 3 4 3 1 0 0 0 0 0 0 0 0 0 0 0 0 1 1
0 0 0 0 0 0 0 1 3 5 6 5 4 5 6 5 4 3 3 3 5 7 9 8 5 3 2 2 1 1 1 2 3 3 1 0 0 0 0 0 0 0 0 0 0 0 0 1 1
0 0 0 0 0 0 0 1 3 5 6 7 6 6 7 7 6 6 5 5 6 9 10 10 9 5 3 2 2 2 1 1 2 2 1 0 0 0 0 0 0 0 0 0 0 0 0 0 0
0 0 0 0 0 0 0 1 2 4 5 5 5 5 7 8 8 8 8 8 9 11 12 12 12 9 5 3 2 2 2 1 1 1 0 0 0 0 0 1 2 1 1 1 0 0 0 0 0
0 0 0 0 0 0 0 0 1 2 3 3 2 2 4 5 7 10 11 12 13 14 15 15 15 13 9 6 4 3 2 1 0 1 1 0 1 1 1 2 3 3 2 2 1 0 0 0 0
0 0 0 0 0 0 0 0 1 2 1 1 1 0 1 2 6 10 13 14 14 15 15 16 17 15 12 10 8 5 3 1 1 1 2 1 2 2 1 1 2 2 2 2 1 0 1 0 0
0 0 0 0 0 0 0 0 1 1 1 0 0 0 1 2 5 9 13 14 14 14 14 14 16 17 15 13 10 8 6 4 2 2 2 2 2 1 0 0 1 1 1 1 1 1 1 1 1
0 0 0 0 0 0 0 0 0 1 1 1 2 3 2 2 4 8 12 13 13 13 13 13 16 19 20 17 15 12 8 5 3 3 4 3 2 1 0 1 1 1 0 1 2 3 3 3 3
0 0 0 0 0 0 0 0 0 0 1 2 4 6 6 5 6 10 12 13 13 13 13 14 17 22 24 23 21 17 11 6 4 4 5 5 3 3 2 3 4 4 3 3 5 6 6 7 6
0 0 0 0 0 0 0 0 0 0 1 2 4 8 11 11 12 14 16 16 14 13 13 14 18 23 26 25 23 21 16 11 8 7 7 5 4 5 6 6 6 6 6 7 9 10 10 11 11
0 0 0 0 0 0 0 0 0 0 0 1 3 8 14 16 19 23 25 23 19 14 13 14 19 23 25 24 23 23 21 17 13 11 10 7 5 7 9 9 9 8 7 9 11 12 12 13 14
0 0 0 0 0 0 0 0 0 0 1 2 4 9 15 19 23 30 34 33 26 19 15 16 19 21 21 22 21 22 22 18 16 16 15 14 12 10 11 13 13 12 11 11 11 12 12 14 15
0 0 0 0 0 0 0 0 0 1 1 3 5 9 14 17 21 28 35 37 33 25 21 20 19 18 17 18 18 19 20 19 19 21 20 18 17 16 15 17 19 19 18 15 13 12 12 15 16
0 0 0 0 0 0 0 0 1 2 1 2 4 7 10 13 16 22 28 33 34 31 27 24 21 18 17 17 17 17 19 19 20 22 22 20 20 21 20 20 21 22 21 19 16 14 14 17 18
0 0 0 0 0 0 0 0 1 2 1 1 3 5 7 9 11 16 23 29 32 32 31 29 25 22 21 20 20 19 20 20 20 20 20 20 22 23 22 20 21 21 20 20 19 16 14 18 20
0 0 0 0 0 0 0 0 0 1 1 2 3 4 6 7 9 14 21 29 31 30 32 32 29 26 25 23 22 22 22 20 19 19 19 20 22 24 22 20 21 21 20 20 20 16 14 17 21

GEFSSGP_con_prob3kmehi_288.txt.gz
EHI
3 8 18 27 22 9 2 0 0 0 0 0 0 0 0 0 0 1 5 9 12 10 5 2 2 2 1 1 0 0 0 1 1 1 2 2 1 0 1 1 1 2 2 1 0 0 0 0 0
4 12 23 25 15 5 1 0 0 0 0 0 0 0 0 0 0 1 4 9 11 9 5 3 3 3 2 2 1 0 1 2 2 2 2 2 1 0 0 0 0 1 1 1 0 0 0 0 0
15 22 27 20 8 1 0 0 0 0 0 0 0 0 0 0 0 1 4 7 10 9 5 3 3 3 3 3 2 1 2 3 3 3 3 1 0 0 0 0 0 0 0 0 0 0 0 0 0
30 30 23 11 3 0 0 0 0 0 0 0 0 0 1 1 2 3 4 7 8 7 5 3 3 3 3 3 2 1 2 3 3 3 2 1 0 0 0 0 0 0 0 0 0 0 0 0 0
33 26 13 4 0 0 0 0 0 0 0 1 1 2 2 3 4 4 5 6 6 5 4 3 4 4 4 3 2 1 2 2 2 2 1 0 0 0 0 0 0 0 0 0 0 0 0 0 0
24 15 6 1 0 0 0 0 0 1 0 1 2 3 4 6 7 5 4 5 5 4 4 4 5 4 3 3 2 2 1 1 1 1 0 0 0 0 0 0 0 0 0 0 0 0 0 0 0
15 9 3 0 0 0 0 0 0 0 0 1 1 2 5 8 8 5 4 4 4 4 3 2 3 2 2 3 2 1 1 0 0 0 0 0 0 0 0 0 0 0 0 1 1 0 0 0 1
9 6 1 0 0 0 0 0 0 0 0 1 1 3 5 9 9 6 4 4 4 3 2 1 2 2 2 2 2 2 1 1 1 1 1 1 1 1 0 1 2 1 1 2 2 2 1 1 2
5 3 1 0 0 0 0 0 0 0 1 2 3 5 7 8 7 5 4 4 4 2 1 1 2 2 2 3 4 4 3 3 3 3 3 3 2 1 1 2 3 4 4 5 6 6 5 4 4
3 1 0 0 0 0 0 0 0 0 1 4 6 6 6 6 6 5 4 3 2 2 1 1 2 2 2 4 7 6 6 7 5 4 3 2 1 1 0 1 3 6 7 8 10 10 8 6 5
2 1 0 0 0 0 0 0 0 0 2 6 8 6 4 4 5 5 3 2 2 3 2 2 3 4 4 5 7 7 6 7 5 4 3 1 0 0 0 1 2 5 7 9 10 9 7 6 6
1 0 0 0 0 0 0 0 0 0 2 7 11 8 4 3 4 4 3 3 3 3 3 4 7 8 8 7 6 4 4 3 4 4 3 2 0 0 0 1 1 3 5 7 7 6 4 5 7
0 0 0 0 0 0 0 0 0 1 2 7 12 10 5 3 3 3 3 4 5 5 5 7 10 13 13 9 6 3 1 1 2 3 3 2 1 0 0 1 1 2 4 5 6 4 4 6 9
0 0 0 0 0 0 0 0 1 2 3 6 9 10 7 5 4 5 6 7 8 9 10 11 11 13 13 10 7 4 2 1 2 3 4 4 2 1 2 2 2 3 4 6 7 6 5 6 7
0 0 0 0 0 0 0 1 2 3 2 3 6 9 11 9 7 7 10 12 13 16 18 15 11 11 11 10 8 6 4 4 4 5 6 6 5 5 5 6 6 4 6 9 10 9 7 4 4
0 0 1 0 0 0 0 1 4 3 1 2 5 11 15 15 12 12 14 17 19 24 25 19 14 15 14 11 10 8 7 9 11 11 11 11 10 9 8 9 8 7 8 10 10 9 6 3 3
0 0 0 0 0 0 0 2 4 3 3 4 7 12 17 19 18 18 18 20 26 33 32 25 21 20 17 14 11 10 10 13 15 15 16 15 14 11 9 9 9 9 10 11 9 6 5 5 6
0 0 0 0 0 0 0 2 3 3 3 5 9 14 18 20 22 24 23 25 33 39 39 33 27 25 21 17 15 14 15 16 18 21 22 20 17 14 10 9 11 12 12 12 8 5 5 7 7
0 0 0 0 0 0 0 1 3 2 2 6 11 17 20 21 25 28 30 32 37 43 45 41 36 33 28 22 19 19 19 19 21 25 28 25 21 17 14 13 15 16 15 13 10 7 5 5 5
0 0 0 0 1 1 1 1 2 3 3 7 12 18 21 24 29 35 37 38 42 47 51 49 46 44 38 29 23 21 19 20 22 26 30 29 25 22 20 20 20 20 19 16 13 11 9 6 5
0 0 0 0 1 1 1 1 2 4 6 8 12 18 23 28 36 42 42 40 43 50 52 52 53 51 44 35 28 24 23 22 23 28 33 31 29 28 26 25 24 24 23 19 16 16 15 11 10
0 0 0 0 1 1 0 1 3 5 7 9 12 18 25 32 40 46 45 41 42 46 49 54 58 55 48 39 31 29 29 27 26 31 35 34 32 31 28 27 28 28 25 19 16 17 18 16 13
0 0 0 0 0 0 0 0 1 3 5 7 11 18 25 33 42 47 48 45 43 44 48 56 63 62 55 46 38 33 31 28 27 31 35 34 33 31 29 29 32 33 30 25 20 18 18 16 14
0 0 0 0 0 0 0 1 1 2 3 6 10 16 22 30 40 47 51 51 47 46 50 59 67 67 62 54 45 40 36 31 29 30 33 32 31 30 28 31 36 38 35 33 30 25 21 18 16
0 0 0 0 0 0 1 2 3 4 5 8 11 15 20 27 36 45 52 54 51 49 53 61 69 70 66 59 52 48 44 40 35 35 34 33 31 30 29 32 39 41 38 35 32 28 24 23 22
0 0 0 0 0 0 2 4 6 6 7 9 11 15 19 25 34 42 49 54 53 51 54 61 67 69 66 61 56 54 52 46 40 38 36 34 33 32 33 36 40 41 37 33 31 28 27 29 31
0 0 0 0 0 0 2 6 8 8 8 9 11 15 18 23 33 41 47 51 51 50 54 59 65 66 64 60 57 55 53 47 40 36 35 33 32 33 37 41 41 40 36 35 32 31 32 36 37
0 0 0 0 0 0 2 5 7 8 9 10 12 15 17 21 29 38 45 46 47 49 51 56 61 63 62 59 57 53 48 45 41 37 35 35 35 36 38 40 41 38 37 38 36 33 35 38 38
0 0 0 0 0 0 1 3 8 11 12 11 12 15 17 20 25 34 39 42 44 45 48 52 56 58 58 57 56 52 46 44 45 41 37 38 40 39 36 36 36 35 34 38 38 33 31 33 33
0 0 0 0 0 0 1 4 10 13 13 12 12 15 19 21 25 30 35 39 41 42 46 50 53 54 53 54 56 53 47 46 46 43 38 38 41 39 35 33 33 31 31 36 38 32 28 28 28

GEFSSGP_con_prob3kmehi_294.txt.gz
EHI
4 3 3 3 1 0 0 0 0 0 0 0 0 0 0 0 1 1 0 0 1 1 1 0 0 0 0 0 0 0 0 0 0 1 2 4 5 5 2 1 0 0 0 0 0 0 0 0 0
1 1 1 1 0 0 0 0 0 0 0 0 0 0 0 1 2 1 0 0 1 2 2 1 1 0 0 0 0 0 0 0 0 0 2 3 4 3 3 1 0 0 0 0 0 0 0 0 0
1 1 0 0 0 0 0 0 0 0 0 0 0 0 0 1 1 1 0 0 1 3 4 4 3 2 1 0 0 0 0 0 0 1 2 3 3 2 2 2 1 0 0 0 0 0 0 0 0
3 2 1 1 0 0 0 0 0 0 0 0 0 0 0 0 1 2 1 0 1 2 4 5 5 3 2 0 0 0 0 0 0 1 2 3 2 1 1 2 2 1 0 0 0 0 0 0 0
4 3 2 1 0 0 0 0 0 0 0 0 1 1 1 2 5 6 4 1 1 2 3 5 5 3 1 0 0 1 1 0 0 1 2 3 2 1 0 1 2 1 1 1 1 1 0 0 0
5 4 3 1 0 0 0 0 0 0 0 1 2 2 2 5 8 7 5 3 3 3 4 5 5 2 1 1 1 2 2 2 1 1 3 3 2 1 1 2 3 3 3 2 2 2 1 0 0
7 6 3 1 0 0 0 0 0 0 0 1 2 3 4 6 7 6 4 4 4 5 5 5 3 1 1 1 2 3 4 4 4 3 3 3 2 2 2 3 4 5 4 3 2 3 2 1 0
8 6 3 1 0 0 0 0 0 0 0 1 2 3 4 5 6 6 5 4 4 4 4 3 2 1 1 1 3 3 5 7 6 6 5 3 2 2 2 3 4 5 5 4 3 3 3 2 1
4 4 3 1 0 0 0 1 0 0 1 2 5 6 7 8 9 9 8 6 4 3 2 2 3 3 2 1 2 3 4 6 5 5 4 3 2 1 1 1 4 7 8 7 6 6 5 4 2
1 2 2 1 0 0 0 0 0 0 1 5 9 11 11 11 11 11 10 8 7 3 1 1 3 4 3 1 1 2 3 3 2 2 1 1 1 0 0 1 3 7 9 7 6 6 6 5 3
0 1 1 0 0 0 0 1 1 0 1 5 10 12 12 11 11 11 10 10 9 6 2 0 2 3 3 1 0 1 2 2 0 0 0 0 0 0 0 0 2 4 5 3 3 3 3 3 3
0 0 0 0 0 0 1 2 2 1 3 6 9 9 9 10 11 11 10 9 9 6 3 1 2 3 2 1 0 1 1 1 0 0 1 1 0 0 0 0 0 1 1 0 0 0 1 2 3
0 0 0 1 1 1 2 3 3 4 6 8 8 7 5 6 8 9 9 8 7 6 4 2 2 3 2 1 0 0 0 0 0 1 2 2 1 0 0 0 0 0 0 0 0 1 1 1 2
0 0 1 2 2 3 4 6 7 8 9 8 7 5 3 2 4 7 8 8 7 8 6 3 2 3 3 2 1 0 0 0 0 1 2 2 1 0 0 0 0 0 0 0 1 1 1 1 1
0 0 1 2 3 4 5 7 11 13 11 8 7 5 1 0 3 6 8 10 11 9 7 6 5 5 5 4 1 0 0 0 0 0 1 1 1 0 0 0 0 0 0 0 1 1 1 0 0
0 0 1 2 3 3 4 7 12 15 13 8 6 4 1 0 2 5 9 13 15 14 11 9 9 8 7 4 1 0 0 0 0 0 0 0 0 0 0 0 0 0 0 0 1 1 0 0 0
0 0 0 1 1 3 3 6 11 14 13 9 6 4 2 1 3 6 11 16 18 18 15 11 9 8 8 5 2 0 0 0 0 0 0 0 0 0 0 0 0 0 0 0 0 0 0 0 0
0 0 0 0 1 2 3 6 10 12 11 10 8 6 5 4 6 9 16 21 22 21 18 12 8 8 8 6 3 1 0 0 0 1 1 1 1 1 1 1 1 1 0 0 0 0 0 0 0
0 0 0 0 0 2 3 6 8 8 8 9 9 8 7 8 9 14 20 25 28 27 23 16 12 11 10 8 5 3 1 1 1 3 3 3 4 3 3 2 2 2 1 0 0 0 0 0 0
0 0 0 0 0 2 3 5 7 6 5 7 9 10 11 12 14 17 22 29 34 35 31 24 19 17 15 11 7 4 2 2 3 5 5 7 8 7 5 4 3 3 2 1 0 0 0 0 0
0 0 0 0 1 1 1 2 5 6 5 6 8 11 14 17 19 21 26 33 37 37 34 29 24 22 19 14 9 6 4 4 5 6 7 9 11 11 10 8 6 4 3 2 1 1 1 1 0
0 0 0 0 1 0 0 0 3 6 7 7 8 10 14 19 23 25 31 35 36 34 32 30 26 24 21 17 12 10 8 7 7 7 9 10 11 14 16 14 10 6 5 3 2 2 2 2 1
0 0 0 0 0 0 0 0 2 5 8 8 8 10 13 18 23 27 30 33 32 31 30 30 30 27 24 21 17 14 12 10 8 8 10 10 9 12 15 13 11 9 7 5 5 4 3 3 3
0 0 0 0 0 0 0 0 1 4 7 7 8 11 14 17 22 25 27 28 28 29 31 34 35 32 29 26 21 16 14 12 9 8 9 8 7 8 9 9 9 8 7 6 6 5 4 3 4
0 0 0 0 0 0 0 0 2 4 5 7 10 13 15 17 21 23 23 24 24 28 34 39 38 35 33 32 27 20 17 15 12 10 9 7 6 6 7 7 7 8 8 7 6 5 5 4 5
0 0 0 0 0 0 0 0 2 4 6 9 13 16 18 19 19 20 20 22 24 29 36 40 38 35 34 33 28 24 20 18 15 13 12 11 9 9 9 10 10 10 10 9 8 8 7 6 6
0 0 0 0 0 0 0 1 3 5 9 14 17 19 19 20 19 17 18 21 25 28 33 37 36 33 31 27 22 20 19 17 15 13 13 13 13 12 11 11 11 11 12 12 12 10 9 7 6
0 0 0 0 0 0 0 1 3 6 11 15 18 18 18 18 18 17 17 20 23 26 30 33 33 31 27 21 15 14 15 15 14 12 11 12 12 12 11 10 11 12 13 13 13 11 9 7 6
0 0 0 0 0 0 0 0 2 6 10 12 14 16 16 16 16 15 16 19 22 25 28 30 30 28 24 18 14 13 13 14 13 13 12 11 11 11 11 12 14 15 13 11 11 10 8 6 6
0 0 0 0 0 0 0 1 3 6 8 10 12 14 16 15 14 14 15 19 22 24 28 30 29 26 22 18 15 14 14 13 12 12 14 13 11 11 11 13 16 16 13 10 9 9 7 5 4

GEFSSGP_con_prob3kmehi_300.txt.gz
EHI
0 0 1 2 2 1 0 0 0 0 1 0 0 0 0 0 0 0 0 1 3 3 4 6 6 6 6 5 6 8 7 5 3 3 3 3 3 3 3 3 3 3 3 3 3 3 3 3 3
0 0 1 1 1 0 0 0 0 1 1 1 1 1 1 1 1 1 1 2 3 3 4 6 6 5 4 4 5 7 6 4 3 3 3 3 3 3 3 3 3 3 3 3 3 3 3 3 3
0 0 0 0 0 0 0 0 0 1 2 2 2 2 2 2 3 2 2 3 3 3 4 6 6 4 3 3 4 5 5 3 3 3 3 3 4 3 3 3 3 3 3 3 3 3 3 3 3
0 0 0 0 0 0 0 0 0 0 1 1 3 3 3 3 4 3 3 3 3 3 4 5 5 4 3 3 4 5 4 3 3 3 3 4 4 4 3 3 3 3 3 3 3 3 3 3 3
0 0 0 0 0 0 0 0 0 0 0 1 2 3 3 3 4 3 3 3 3 3 3 4 5 5 4 4 5 6 5 4 3 3 3 4 4 4 3 3 3 3 3 3 3 3 3 3 2
1 0 0 0 0 0 0 0 0 0 0 1 3 3 3 3 3 3 3 3 3 4 4 5 6 7 5 4 4 6 6 4 3 3 4 4 5 5 4 3 3 4 4 3 3 3 3 4 4
1 0 0 0 0 0 0 0 0 0 1 2 3 3 3 3 3 3 3 3 4 5 6 6 6 7 6 4 4 5 6 4 3 4 6 6 6 6 4 3 4 5 5 4 3 3 4 5 6
1 0 0 0 0 0 0 0 0 0 1 2 3 3 3 3 3 3 3 3 4 5 6 6 6 6 6 4 3 4 5 5 4 4 6 7 6 5 4 3 4 5 4 4 4 5 6 6 7
0 0 0 0 0 0 0 0 0 0 1 3 4 4 4 4 3 3 3 3 3 4 5 6 6 6 6 4 3 3 4 4 3 4 5 5 5 4 3 3 4 4 4 4 5 6 6 5 5
0 0 0 0 0 0 0 0 0 0 2 4 5 5 5 5 4 4 3 3 3 3 4 5 6 6 5 4 4 4 4 4 3 3 3 4 3 3 3 3 4 4 5 5 5 5 4 4 3
0 0 0 0 0 0 0 0 0 0 1 4 7 8 7 6 6 5 4 3 3 3 3 4 5 5 4 4 5 5 5 5 4 3 3 3 3 3 3 3 3 4 4 4 4 4 4 3 3
0 0 0 0 0 0 0 0 0 0 1 5 10 11 8 6 6 4 3 3 3 3 3 3 4 4 3 4 5 5 5 4 3 3 3 3 3 3 3 3 3 3 3 3 4 4 4 4 4
0 0 0 0 0 0 1 1 0 0 2 6 10 10 6 5 5 4 3 3 3 3 3 3 3 3 3 3 4 4 3 3 3 3 3 3 3 3 3 3 3 3 2 2 3 3 4 4 5
0 0 0 1 0 0 1 1 0 1 4 7 8 6 4 4 4 4 4 4 4 3 3 3 3 3 3 3 3 3 3 3 2 3 3 3 3 3 3 3 2 1 1 1 1 1 2 3 4
0 0 0 0 0 0 0 0 0 2 5 6 6 4 3 3 3 4 5 5 4 3 3 3 3 3 3 3 3 3 3 1 1 1 2 3 3 3 3 2 1 0 0 0 0 0 1 2 2
0 0 0 0 0 0 0 0 1 2 4 4 4 3 3 3 3 3 4 4 4 3 3 3 3 3 3 3 3 3 2 1 0 0 1 1 2 2 1 1 0 0 0 0 0 0 0 0 0
0 0 0 0 0 0 0 1 1 2 3 3 3 3 3 3 3 3 3 4 3 3 3 3 3 3 3 3 3 3 2 1 0 0 0 0 1 1 0 0 0 0 0 0 0 0 0 0 0
0 0 0 0 0 0 1 1 1 1 3 3 3 3 3 3 3 3 4 4 4 3 3 3 3 3 3 3 3 3 2 0 0 0 0 0 0 0 0 0 1 0 0 0 0 0 0 0 0
0 0 0 0 0 0 1 1 1 1 2 3 3 3 3 3 3 3 4 5 4 4 4 3 3 3 3 3 3 3 2 1 1 0 0 0 0 0 0 0 0 0 0 0 0 0 0 0 0
0 0 0 0 0 0 0 0 0 1 2 2 3 3 3 3 4 4 5 6 6 6 6 5 4 3 3 3 3 3 3 2 1 0 0 0 0 0 0 0 0 0 0 0 0 0 0 0 0
0 0 0 0 0 0 0 0 0 0 1 1 1 2 3 4 5 7 8 9 9 9 9 8 6 4 3 3 3 4 3 2 1 1 1 0 0 0 0 0 0 0 0 0 0 0 0 0 0
0 0 0 0 0 0 0 0 0 0 1 1 1 2 3 5 7 9 11 13 12 12 11 9 7 5 4 5 5 5 4 3 3 3 3 1 0 0 0 0 0 0 0 0 0 0 0 0 0
0 0 0 0 0 0 0 0 0 0 1 1 1 1 3 5 7 9 11 13 13 13 12 10 7 6 5 6 7 6 6 5 4 4 4 3 1 0 0 0 0 0 0 0 1 1 1 1 1
0 0 0 0 0 0 0 0 0 0 1 2 2 1 2 3 5 8 10 12 14 15 14 10 6 4 4 6 6 6 6 6 5 5 5 4 3 1 1 0 0 1 1 1 2 2 2 2 2
0 0 0 0 0 0 0 0 0 0 1 2 2 2 1 2 4 8 11 13 15 17 16 12 7 6 6 6 5 3 4 5 5 5 5 5 5 4 2 1 1 1 1 1 2 3 3 3 3
0 0 0 0 0 0 0 0 0 1 2 3 2 2 2 3 5 9 12 13 15 18 18 15 12 11 10 8 5 1 1 2 2 3 3 4 5 5 4 2 1 1 1 1 2 2 3 3 3
0 0 0 0 0 0 0 0 0 2 3 2 1 2 3 4 7 9 10 11 13 15 16 16 16 16 15 10 5 1 0 1 1 1 3 3 4 5 4 2 1 0 0 0 1 1 1 2 3
0 0 0 0 0 0 0 0 0 1 2 2 2 2 3 5 7 7 8 9 11 13 14 15 17 17 15 11 6 3 2 2 2 3 3 3 3 4 3 1 1 0 0 1 1 0 1 2 2
0 0 0 0 0 0 0 0 0 1 2 4 5 4 4 5 6 6 6 6 9 12 14 15 15 15 14 11 8 6 3 3 3 3 3 3 3 3 3 2 1 2 2 2 2 2 2 2 1
0 0 0 0 0 0 0 0 0 0 2 6 7 6 5 6 6 5 4 5 7 12 15 15 14 14 13 12 10 8 4 2 3 3 3 3 3 4 4 3 4 4 4 3 3 3 2 2 2